Regional Weather Roundup
Issued by NWS

Home | Current Version | Previous Version | Graphics & Text | Print | Product List | Glossary On
Versions: 1 2 3 4 5 6 7 8 9 10 11 12 13 14 15 16 17 18 19 20 21 22 23 24 25 26 27 28 29 30 31 32 33 34 35 36 37 38 39 40 41 42 43 44 45 46 47 48 49 50
621
ASUS44 KJAN 211210
RWRMS

MISSISSIPPI HOURLY WEATHER ROUNDUP
NATIONAL WEATHER SERVICE JACKSON MS
700 AM CDT TUE OCT 21 2014

NOTE: "FAIR: INDICATES FEW OR NO CLOUDS BELOW 12,000 FEET WITH NO
SIGNIFICANT WEATHER AND/OR OBSTRUCTIONS TO VISIBILITY.

MSZ001>002-007>008-010>013-018>021-025>028-034>036-211300-
NORTHWEST MISSISSIPPI

CITY           SKY/WX    TMP DP  RH WIND       PRES   REMARKS
CLARKSDALE     FAIR      54  54 100 CALM      30.07R
CLEVELAND      FAIR      53  53 100 CALM      30.06R
GREENWOOD      CLEAR     48  46  93 NE3       30.07R
6HR MIN TEMP:  48; 6HR MAX TEMP:  52;

GREENVILLE     CLEAR     53  52  96 CALM      30.06R FOG
6HR MIN TEMP:  53; 6HR MAX TEMP:  56;

GRENADA          N/A    N/A N/A N/A MISG        N/A
OLIVE BRANCH   CLEAR     52  52 100 CALM      30.06S
OXFORD         FAIR      46  46 100 CALM      30.08R
TUNICA         FOG       48  46  93 CALM      30.07R VSB 1/2
$$

MSZ003>006-009-014>017-022>024-029>033-037>039-211300-
NORTHEAST MISSISSIPPI

CITY           SKY/WX    TMP DP  RH WIND       PRES   REMARKS
COLUMBUS AFB   CLEAR     45  45 100 CALM      30.06R
6HR MIN TEMP:  45; 6HR MAX TEMP:  51; 6HR PCP: TRACE;

CORINTH          N/A    N/A N/A N/A MISG        N/A
GOLDN TRIANGLE CLEAR     46  43  87 CALM      30.05R
STARKVILLE     FAIR      45  45 100 CALM      30.06S
TUPELO         CLEAR     50  47  89 CALM      30.05R
6HR MIN TEMP:  49; 6HR MAX TEMP:  53;

$$

MSZ040-058-211300-
CENTRAL MISSISSIPPI

CITY           SKY/WX    TMP DP  RH WIND       PRES   REMARKS
JACKSON INTL   CLEAR     50  48  93 CALM      30.07R
6HR MIN TEMP:  48; 6HR MAX TEMP:  53;

JACKSON HAWKNS CLEAR     52  48  86 CALM      30.07R
6HR MIN TEMP:  51; 6HR MAX TEMP:  56;

MERIDIAN KEY   CLEAR     46  44  93 CALM      30.07R
6HR MIN TEMP:  46; 6HR MAX TEMP:  50;

MERIDIAN NAS   CLEAR     47  45  93 NW3       30.07R
6HR MIN TEMP:  47; 6HR MAX TEMP:  51;

RAYMOND        FAIR      46  43  87 MISG      30.08R FOG
VICKSBURG      CLEAR     49  47  93 S3        30.08R
6HR MIN TEMP:  47; 6HR MAX TEMP:  51;

$$

MSZ059>079-211300-
SOUTH MISSISSIPPI

CITY           SKY/WX    TMP DP  RH WIND       PRES   REMARKS
BROOKHAVEN     FAIR      48  48 100 CALM      30.08S
COLUMBIA         N/A    N/A N/A N/A MISG        N/A
HATTIESBURG    CLEAR     49  48  97 CALM      30.07R
6HR MIN TEMP:  49; 6HR MAX TEMP:  53;

MCCOMB         CLEAR     57  48  72 NE5       30.06R
6HR MIN TEMP:  52; 6HR MAX TEMP:  61;

NATCHEZ        CLEAR     50  46  87 CALM      30.07R
6HR MIN TEMP:  50; 6HR MAX TEMP:  54;

PINE BELT      CLEAR     50  46  87 CALM      30.07R
6HR MIN TEMP:  48; 6HR MAX TEMP:  54;

$$

MSZ080>082-211300-
COASTAL MISSISSIPPI

CITY           SKY/WX    TMP DP  RH WIND       PRES   REMARKS
BAY ST LOUIS   CLEAR     48  46  93 CALM      30.04
BILOXI         CLEAR     56  51  84 N6        30.03S
6HR MIN TEMP:  56; 6HR MAX TEMP:  60;

PASCAGOULA     CLEAR     48  48 100 N3        30.04R
6HR MIN TEMP:  46; 6HR MAX TEMP:  50;

GULFPORT       CLEAR     54  50  86 N3        30.03R
6HR MIN TEMP:  52; 6HR MAX TEMP:  56;

$$



USA.gov is the U.S. government's official web portal to all federal, state and local government web resources and services.